Tracking 27405 objects as of 2-Jun-2023
HD Live streaming from Space Station
objects crossing your sky now

COSMOS 1934

Track COSMOS 1934 now!
10-day predictions
COSMOS 1934 is classified as:


NORAD ID: 18985
Int'l Code: 1988-023A
Perigee: 953.1 km
Apogee: 1,013.7 km
Inclination: 83.0 °
Period: 104.6 minutes
Semi major axis: 7354 km
RCS: 2.9931 m2 (large)
Launch date: March 22, 1988
Source: Commonwealth of Independent States (former USSR) (CIS)
Launch site: PLESETSK MISSILE AND SPACE COMPLEX (PKMTR)
Your satellite tracking list
Your tracking list is empty




NASA's NSSDC Master Catalog

Two Line Element Set (TLE):
1 18985U 88023A   23152.41932217  .00000045  00000-0  30500-4 0  9995
2 18985  82.9566 259.2616 0041146   1.1671 358.9575 13.76519878643305
Source of the keplerian elements: AFSPC